Location: Baggettsville
(36.4767°N, 86.7303°W)
Time: 08:09:35
(UTC+00:00)

YAOGAN 1 - Pass Details

Date: 29 October 2020
Orbit: 618 x 620 km, 97.9° (Epoch: 04 December)

Event Time Altitude Azimuth Distance (km) Brightness Sun altitude
Rises 23:41:09 0° 136° (SE) 2,884 5.7 -10.3°
Reaches altitude 10° 23:43:40 10° 122° (ESE) 1,983 4.7 -10.8°
Maximum altitude 23:47:04 23° 69° (ENE) 1,320 3.7 -11.4°
Drops below altitude 10° 23:50:29 10° 17° (NNE) 1,993 4.9 -12.1°
Sets 23:53:01 0° 3° (N) 2,904 5.9 -12.6°
